[[{"header":{"parameterUnit":"m.s-1","parameterCategory":1,"la1":30.2991,"la2":30.254,"lo1":-89.0895,"lo2":-89.0444,"dy":0.0017,"dx":0.0017,"nx":28,"ny":28,"refTime":"2025-08-30T03:00:00:Z","depth":0,"parameterNumber":2,"parameterNumberName":"U-component_of_WINDS"},"data":[0,0,0,0,0,0,0,0,0,0,0,0,0,0,0,0,0,0,0,0,0,0,0,0,0,0,0,0,0,0,0,0,0,0,0,0,0,0,0,0,0,0,0,0,0,0,0,0,0,0,0,0,0,0,0,0,0,0,-0.6194,-0.6195,0,-0.6331,-0.6333,-0.6334,-0.6279,-0.6276,-0.6273,-0.627,-0.6418,-0.6425,-0.6432,0,0,0,0,0,0,0,0,0,0,0,0,0,-0.589,-0.5896,-0.6194,-0.6195,-0.6197,-0.6331,-0.6333,-0.6335,-0.628,-0.6276,-0.6272,-0.6268,-0.6416,-0.6424,-0.6433,0,0,0,0,0,0,0,0,0,0,0,0,0,-0.6024,-0.5898,-0.6193,-0.6186,-0.6186,-0.6331,-0.6333,-0.6335,-0.6281,-0.6276,-0.6271,-0.6266,-0.6413,-0.6423,-0.6434,-0.6596,0,0,-0.6466,-0.647,0,0,0,0,0,0,0,0,-0.6017,-0.6036,-0.6185,-0.6187,-0.6188,-0.6283,-0.628,-0.6423,-0.6282,-0.6245,-0.627,-0.6264,-0.6378,-0.6391,-0.6428,-0.6603,-0.6609,-0.6467,-0.6473,-0.6478,-0.6481,0,0,0,0,0,0,0,-0.6008,-0.603,-0.6248,-0.6187,-0.6189,-0.6178,-0.6191,-0.6307,-0.6338,-0.6248,-0.6244,-0.6261,-0.6378,-0.6418,-0.6431,-0.6612,-0.6466,-0.6476,-0.6482,-0.6486,-0.6928,-0.6933,0,0,0,0,0,0,-0.5997,-0.6022,-0.6244,-0.6252,-0.6088,-0.6187,-0.6202,-0.6257,-0.6336,-0.6343,-0.6265,-0.6258,-0.6402,-0.6419,-0.6436,-0.6632,-0.6477,-0.6487,-0.6493,-0.6923,-0.6929,-0.6935,0,0,0,0,0,0,-0.5991,-0.6017,-0.6238,-0.6136,-0.6163,-0.6197,-0.626,-0.6263,-0.6303,-0.6349,-0.6354,-0.63,-0.6399,-0.6421,-0.6556,-0.6636,-0.6492,-0.6502,-0.6916,-0.6925,-0.6932,-0.7025,0,0,0,0,0,0,-0.5982,-0.6015,-0.6076,-0.6138,-0.6169,-0.6355,-0.6265,-0.6269,-0.632,-0.6312,-0.6383,-0.639,-0.6397,-0.6541,-0.6567,-0.6648,-0.651,-0.6909,-0.692,-0.693,-0.7015,-0.7035,-0.7053,0,0,0,0,0,-0.5972,-0.6098,-0.608,-0.6107,-0.6245,-0.636,-0.6378,-0.6381,-0.6327,-0.6389,-0.6418,-0.6388,-0.6622,-0.6555,-0.6584,-0.667,-0.6904,-0.6917,-0.6929,-0.7007,-0.7031,-0.7052,0,0,0,0,0,0,-0.6048,-0.6106,-0.6086,-0.6236,-0.6293,-0.635,-0.6429,-0.6407,-0.6482,-0.6472,-0.6474,-0.6491,-0.6631,-0.6663,-0.6587,-0.6831,-0.6756,-0.6774,-0.6805,-0.6829,-0.6847,-0.6838,-0.6518,0,0,0,0,0,-0.6082,-0.6168,-0.6215,-0.6343,-0.6372,-0.6396,-0.6446,-0.6442,-0.6503,-0.6527,-0.6567,-0.6628,-0.6716,-0.6774,-0.6857,-0.7018,-0.7034,-0.7092,-0.711,-0.7125,-0.7143,-0.7232,-0.7258,-0.6975,-0.6975,-0.6975,0,0,-0.6154,-0.6196,-0.6251,-0.6359,-0.6403,-0.6494,-0.6417,-0.6516,-0.6585,-0.6543,-0.6673,-0.6704,-0.6773,-0.6922,-0.699,-0.6954,-0.7224,-0.7141,-0.7153,-0.7162,-0.7247,-0.7274,-0.7298,-0.6984,-0.6982,-0.6981,0,0,-0.6332,-0.6371,-0.6483,-0.6527,-0.6593,-0.6608,-0.6634,-0.6695,-0.6713,-0.6842,-0.6813,-0.6895,-0.7046,-0.7096,-0.7142,-0.7337,-0.7313,-0.7364,-0.7464,-0.7551,-0.7573,-0.7593,-0.7665,-0.769,-0.738,-0.738,-0.7381,0,-0.6414,-0.6548,-0.6543,-0.6645,-0.6694,-0.6657,-0.6772,-0.6816,-0.6907,-0.6943,-0.69,-0.7088,-0.7131,-0.7293,-0.734,-0.7377,-0.741,-0.7357,-0.757,-0.759,-0.7608,-0.7677,-0.7703,-0.7386,-0.7386,-0.7385,-0.7384,0,-0.6646,-0.6739,-0.6821,-0.6907,-0.6965,-0.7073,-0.7087,-0.7147,-0.7138,-0.7158,-0.7291,-0.7341,-0.7434,-0.7472,-0.7465,-0.7633,-0.7608,-0.7568,-0.7492,-0.7641,-0.7706,-0.7732,-0.7395,-0.7393,-0.7391,-0.7389,0,0,-0.6879,-0.6959,-0.699,-0.7028,-0.7097,-0.7171,-0.7277,-0.7365,-0.7417,-0.748,-0.7571,-0.7698,-0.7661,-0.7712,-0.7711,-0.7787,-0.794,-0.7737,-0.7739,-0.7775,-0.813,-0.8162,-0.8193,-0.7923,-0.7928,-0.7932,-0.8125,0,-0.7064,-0.7247,-0.7246,-0.7417,-0.7504,-0.7469,-0.7562,-0.7616,-0.7637,-0.7715,-0.7739,-0.783,-0.7772,-0.7803,-0.7876,-0.7906,-0.8012,-0.7892,-0.8011,-0.8015,-0.7997,-0.8226,-0.8261,-0.8441,-0.815,-0.8155,-0.8158,0,-0.7304,-0.7373,-0.7552,-0.7608,-0.7644,-0.7727,-0.7808,-0.7882,-0.7943,-0.7953,-0.801,-0.7996,-0.8107,-0.8025,-0.8179,-0.8097,-0.8145,-0.8167,-0.8174,-0.8188,-0.8098,-0.8249,-0.8498,-0.8526,-0.8197,-0.8194,-0.8191,0,-0.7459,-0.7596,-0.7721,-0.7755,-0.7823,-0.7882,-0.7914,-0.7969,-0.8022,-0.8093,-0.8128,-0.8212,-0.8259,-0.8325,-0.8335,-0.8275,-0.849,-0.841,-0.8504,-0.8505,-0.8554,-0.8551,-0.8817,-0.8581,-0.858,-0.858,-0.8579,0,-0.7667,-0.7779,-0.7791,-0.7868,-0.7992,-0.799,-0.8114,-0.8141,-0.819,-0.8273,-0.8249,-0.8328,-0.8335,-0.8418,-0.8427,-0.8554,-0.8575,-0.8588,-0.859,-0.8592,-0.8591,-0.8626,-0.8615,-0.8587,-0.8585,-0.8584,-0.8583,0,-0.7862,-0.7874,-0.8009,-0.8061,-0.8076,-0.8166,-0.8212,-0.8287,-0.8303,-0.841,-0.8435,-0.8463,-0.8559,-0.8574,-0.8688,-0.8694,-0.8846,-0.8834,-0.8826,-0.8825,-0.892,-0.8912,-0.922,-0.9261,-0.8995,-0.8997,-0.9,0,-0.7996,-0.808,-0.814,-0.8193,-0.8227,-0.8312,-0.8365,-0.8366,-0.8423,-0.8498,-0.8564,-0.8657,-0.8731,-0.8886,-0.8918,-0.9005,-0.8996,-0.9098,-0.901,-0.9009,-0.9001,-0.8997,-0.9007,-0.9117,-0.912,-0.9122,-0.9124,0,-0.8232,-0.8233,-0.8309,-0.8388,-0.8451,-0.8514,-0.8573,-0.8618,-0.8627,-0.8692,-0.8788,-0.8845,-0.8959,-0.9053,-0.9139,-0.9174,-0.9153,-0.9151,-0.9178,-0.9183,-0.9175,-0.9183,-0.8875,-0.9145,-0.9143,-0.9141,-0.914,-0.9139,-0.8402,-0.8475,-0.8529,-0.8615,-0.8658,-0.8714,-0.8787,-0.8811,-0.8891,-0.8982,-0.8978,-0.9084,-0.9143,-0.9256,-0.9296,-0.9381,-0.9349,-0.9387,-0.9398,-0.9408,-0.9418,-0.9159,-0.9397,-0.9396,-0.9395,-0.9395,-0.9395,0,-0.8638,-0.867,-0.8749,-0.8831,-0.8899,-0.8867,-0.8931,-0.8991,-0.9084,-0.9139,-0.9212,-0.9323,-0.9413,-0.9451,-0.954,-0.9601,-0.9593,-0.9625,-0.9622,-0.9631,-0.9441,-0.941,-0.9629,-0.9629,-0.9629,-0.9629,-0.9629,-0.9629,-0.877,-0.8893,-0.8901,-0.9046,-0.9078,-0.9179,-0.9219,-0.9271,-0.9315,-0.9439,-0.9512,-0.9535,-0.9585,-0.9676,-0.9758,-0.9767,-0.9803,-0.984,-0.9845,-0.9668,-0.9644,-0.9621,-0.9592,-0.9847,-0.9847,-1.0028,-1.0029,-1.0031]},{"header":{"parameterUnit":"m.s-1","parameterCategory":1,"la1":30.2991,"la2":30.254,"lo1":-89.0895,"lo2":-89.0444,"dy":0.0017,"dx":0.0017,"nx":28,"ny":28,"refTime":"2025-08-30T03:00:00:Z","depth":0,"parameterNumber":3,"parameterNumberName":"V-component_of_WINDS"},"data":[0,0,0,0,0,0,0,0,0,0,0,0,0,0,0,0,0,0,0,0,0,0,0,0,0,0,0,0,0,0,0,0,0,0,0,0,0,0,0,0,0,0,0,0,0,0,0,0,0,0,0,0,0,0,0,0,0,0,0.0585,0.0585,0,0.0608,0.0608,0.0608,0.0649,0.065,0.0651,0.0652,0.0672,0.0672,0.0672,0,0,0,0,0,0,0,0,0,0,0,0,0,0.0574,0.0574,0.0585,0.0585,0.0586,0.0608,0.0608,0.0608,0.0649,0.065,0.0651,0.0652,0.0672,0.0672,0.0672,0,0,0,0,0,0,0,0,0,0,0,0,0,0.0586,0.0574,0.0585,0.0609,0.0611,0.0608,0.0608,0.0608,0.0649,0.065,0.0651,0.0652,0.0673,0.0672,0.0672,0.0647,0,0,0.0671,0.0671,0,0,0,0,0,0,0,0,0.0585,0.0586,0.0605,0.0607,0.061,0.0627,0.0612,0.0621,0.0649,0.0634,0.0652,0.0653,0.0656,0.0657,0.0659,0.0647,0.0648,0.0671,0.0671,0.0671,0.0671,0,0,0,0,0,0,0,0.0584,0.0585,0.0594,0.0605,0.0608,0.0617,0.062,0.0614,0.0638,0.0636,0.0639,0.0641,0.0658,0.0659,0.066,0.0649,0.0671,0.0671,0.0671,0.0671,0.0615,0.0614,0,0,0,0,0,0,0.058,0.0584,0.0593,0.0595,0.06,0.0616,0.062,0.062,0.0639,0.0643,0.064,0.0643,0.0659,0.066,0.0661,0.063,0.0671,0.0671,0.067,0.0617,0.0615,0.0614,0,0,0,0,0,0,0.058,0.0581,0.0592,0.059,0.0593,0.0615,0.0615,0.062,0.0621,0.0642,0.0646,0.0637,0.066,0.0661,0.0649,0.0632,0.067,0.067,0.0618,0.0616,0.0614,0.057,0,0,0,0,0,0,0.0579,0.058,0.0572,0.059,0.0593,0.0582,0.0614,0.062,0.0621,0.0625,0.064,0.0644,0.0661,0.065,0.0649,0.0632,0.067,0.062,0.0617,0.0615,0.0573,0.0567,0.0562,0,0,0,0,0,0.0579,0.0558,0.0571,0.0572,0.0582,0.058,0.0582,0.0603,0.062,0.061,0.0623,0.0643,0.0634,0.0648,0.0648,0.063,0.0621,0.0618,0.0615,0.0576,0.0568,0.0562,0,0,0,0,0,0,0.0536,0.0561,0.0575,0.056,0.0568,0.0587,0.0576,0.0594,0.0597,0.06,0.0625,0.0628,0.0613,0.0621,0.0636,0.0606,0.0631,0.0627,0.0601,0.0594,0.0588,0.0585,0.067,0,0,0,0,0,0.0526,0.0523,0.0544,0.0529,0.0532,0.0553,0.0553,0.0569,0.0578,0.0581,0.0593,0.06,0.0598,0.0597,0.0597,0.0575,0.0578,0.0563,0.0557,0.0552,0.0549,0.0536,0.0529,0.0604,0.0604,0.0604,0,0,0.0502,0.0516,0.0512,0.052,0.0528,0.0524,0.0556,0.055,0.0546,0.058,0.0569,0.0578,0.0588,0.057,0.0564,0.0576,0.0529,0.0549,0.0544,0.0543,0.0532,0.0525,0.0518,0.0602,0.0603,0.0603,0,0,0.0458,0.0468,0.0456,0.0463,0.0474,0.0489,0.0486,0.0502,0.051,0.05,0.0524,0.052,0.0517,0.0522,0.0525,0.0481,0.0499,0.048,0.0449,0.0436,0.043,0.0425,0.0407,0.0401,0.0477,0.0477,0.0477,0,0.0427,0.0422,0.0447,0.0439,0.0441,0.0472,0.0458,0.0464,0.0474,0.0474,0.0489,0.0486,0.0494,0.0478,0.0467,0.0468,0.0464,0.0478,0.0429,0.0424,0.042,0.0403,0.0397,0.0475,0.0475,0.0475,0.0475,0,0.0383,0.0379,0.0368,0.0377,0.0378,0.0368,0.0389,0.0387,0.0402,0.0415,0.0403,0.0415,0.0416,0.0414,0.0429,0.0399,0.0406,0.0425,0.045,0.041,0.0394,0.0388,0.0471,0.0472,0.0473,0.0473,0,0,0.0312,0.0335,0.033,0.0334,0.0349,0.0346,0.0336,0.0338,0.0335,0.0341,0.0332,0.0329,0.0346,0.0348,0.0364,0.0353,0.0315,0.0373,0.0373,0.036,0.028,0.0265,0.0257,0.0328,0.0327,0.0326,0.0279,0,0.0268,0.0254,0.0275,0.0254,0.025,0.0279,0.027,0.0277,0.0289,0.0286,0.0298,0.0294,0.0318,0.0319,0.031,0.0322,0.0299,0.0326,0.0318,0.0317,0.0312,0.025,0.0234,0.0189,0.0273,0.0272,0.0272,0,0.0216,0.022,0.0199,0.0214,0.0213,0.0205,0.0208,0.0205,0.0214,0.0222,0.0225,0.0244,0.0233,0.0259,0.0245,0.0262,0.026,0.0265,0.0264,0.0263,0.029,0.0244,0.0175,0.0167,0.0263,0.0264,0.0264,0,0.0163,0.0163,0.015,0.0153,0.0171,0.0164,0.0171,0.0181,0.018,0.0183,0.0182,0.0184,0.0184,0.0184,0.0202,0.0219,0.0184,0.0212,0.0189,0.0189,0.0179,0.0179,0.0106,0.0181,0.0181,0.0182,0.0182,0,0.0111,0.0097,0.0126,0.0118,0.0102,0.0127,0.011,0.012,0.0128,0.0121,0.0147,0.014,0.0165,0.016,0.0174,0.0159,0.0159,0.0165,0.0168,0.0161,0.016,0.0159,0.0161,0.018,0.018,0.018,0.0181,0,0.0049,0.0068,0.0056,0.0074,0.0078,0.0065,0.008,0.0072,0.0085,0.0076,0.0075,0.0095,0.009,0.0109,0.0108,0.0117,0.0093,0.0103,0.009,0.0092,0.0068,0.0069,-0.001,-0.002,0.0063,0.0063,0.0062,0,0.0014,0.0003,0.002,0.0017,0.0023,0.0019,0.0018,0.0042,0.004,0.0048,0.0039,0.0037,0.0036,0.0027,0.0041,0.004,0.0048,0.0021,0.0048,0.0041,0.0045,0.0044,0.0042,0.0014,0.0013,0.0012,0.0012,0,-0.0052,-0.0042,-0.0043,-0.0041,-0.0042,-0.0039,-0.0035,-0.0039,-0.0014,-0.0017,-0.0021,-0.0022,-0.0023,-0.0027,-0.0025,-0.0019,-0.0001,0.0003,-0.0003,-0.0011,-0.0019,-0.0017,0.0072,0.0004,0.0005,0.0006,0.0006,0.0006,-0.0103,-0.0112,-0.0102,-0.0105,-0.0099,-0.0096,-0.0103,-0.009,-0.0093,-0.0092,-0.0078,-0.0086,-0.0078,-0.0074,-0.007,-0.0077,-0.0064,-0.0072,-0.0074,-0.0077,-0.0082,-0.0016,-0.0076,-0.0076,-0.0076,-0.0075,-0.0075,0,-0.017,-0.0162,-0.0164,-0.0159,-0.0162,-0.0142,-0.0137,-0.014,-0.0147,-0.0141,-0.0142,-0.0148,-0.0151,-0.0138,-0.014,-0.0148,-0.0139,-0.0149,-0.015,-0.0149,-0.0092,-0.0088,-0.0156,-0.0156,-0.0156,-0.0156,-0.0156,-0.0156,-0.0205,-0.0219,-0.0208,-0.022,-0.0212,-0.0218,-0.0217,-0.0215,-0.021,-0.0218,-0.022,-0.0211,-0.0203,-0.0204,-0.0207,-0.0203,-0.0206,-0.0219,-0.0213,-0.016,-0.0153,-0.0145,-0.0141,-0.0219,-0.0219,-0.0269,-0.0269,-0.027]}]]